Regional Weather Roundup
Issued by NWS

Home | Current Version | Previous Version | Text Only | Print | Product List | Glossary Off
Versions: 1 2 3 4 5 6 7 8 9 10 11 12 13 14 15 16 17 18 19 20 21 22 23 24 25 26 27 28 29 30 31 32 33 34 35 36 37 38 39 40 41 42 43 44 45 46 47 48 49 50

000
ASUS45 KBOI 191210
RWRID
WEATHER ROUNDUP FOR IDAHO
NATIONAL WEATHER SERVICE BOISE ID
600 AM MDT FRI SEP 19 2014

NOTE: "FAIR" INDICATES FEW OR NO CLOUDS BELOW 12000 FEET
WITH NO SIGNIFICANT WEATHER AND/OR OBSTRUCTIONS TO VISIBILITY

IDZ012-014-191300-
SOUTHWEST IDAHO


CITY           SKY/WX    TMP DP  RH WIND       PRES   REMARKS
BOISE          CLEAR     59  48  67 NW3       30.01R
CALDWELL       CLEAR     61  43  51 W8        30.02S
MOUNTAIN HOME  CLEAR     62  47  58 NW15      29.99R
$$

IDZ016-017-191300-
SOUTHCENTRAL IDAHO


CITY           SKY/WX    TMP DP  RH WIND       PRES   REMARKS
BURLEY         CLEAR     57  43  59 S3        30.02R
JEROME         CLEAR     52  43  71 SE8       30.03R
TWIN FALLS     CLEAR     61  41  47 S14       30.04R
$$

IDZ019>023-191300-
SOUTHEAST IDAHO


CITY           SKY/WX    TMP DP  RH WIND       PRES   REMARKS
IDAHO FALLS    CLEAR     50  47  89 NE3       30.03R
POCATELLO      CLEAR     51  47  86 SW8       30.03R
REXBURG        CLEAR     49  46  90 NE6       30.03R
$$

IDZ006-010-011-018-031-032-191300-
CENTRAL IDAHO MOUNTAINS


CITY           SKY/WX    TMP DP  RH WIND       PRES   REMARKS
MCCALL         CLEAR     43  37  79 W3        30.05R
HAILEY         CLEAR     46  37  71 NW13      30.09R
STANLEY          N/A     34  31  88 SE5       30.14R WCI  30
SALMON         PTCLDY    41  37  87 CALM      30.03R
CHALLIS        CLEAR     45  36  70 N5        30.05R
$$

IDZ002-004-006-007-026-191300-
NORTHERN IDAHO


CITY           SKY/WX    TMP DP  RH WIND       PRES   REMARKS
LEWISTON       MOCLDY    64  49  57 S5        29.98R
LOWELL           N/A     59  54  83 CALM      29.99R
COEUR D`ALENE  MOCLDY    55  46  71 MISG      29.96R
MULLAN PASS    CLOUDY    46  43  89 SW8       30.05R
$$


USA.gov is the U.S. government's official web portal to all federal, state and local government web resources and services.